map of ATH home
ATH - Airport
Location
City:  Athens, Attikí (Attica), Greece
Near (Alt.):Spata
Name:Eleftherios Venizelos International Airport
ICAO:LGAV
IATA:ATH

Details
Type:Airport (Aerodrome, Airfield)
Use:Public/Civil, International (customs port of entry)
Latitude:37°56'11"N (37.936358)
Longitude:23°56'40"E (23.944467)
Datum:WGS 1984
Elevation:308 ft (94 m)
Variation:4.46°E (WMM2015 magnetic declination)
0.10° annual change
Runways:2
Longest:13123 × 148 ft (4000 × 45 m), paved

Time
Time Zone:UTC+2 (DST+3)
Local Time:

Weather
METAR:LGAV 251250Z 09008KT 050V120 9999 SCT025 SCT070 24/14 Q1015 NOSIG
TAF:LGAV 251100Z 2512/2612 06012KT 9999 FEW020
BECMG 2516/2518 34008KT

Related Locations
Nearby:
Farthest:RMT: 11359 mi / 18280 km
Rimatara [Rimatara Airport], PF

Find:

   beyond  
but within

Other Information
Maps:
NOTAMs:
Links:
Sources:

  
flag of Greece   

Sectional Chart

Flight Planning
at skyvector.com

Satellite Image

Google Maps Satellite view

 

Copyright © 2004-2017 Karl L. Swartz. All rights reserved.
The Great Circle Mapper name and logo are trademarks of the Great Circle Mapper.
All other trademarks mentioned herein belong to their respective owners.
Please see credits for attibutions and further copyright information.

  Follow gcmap on Facebook Follow gcmap on Twitter Follow gcmap on Google+ GCmap on LinkedIn

hCard Microformat

Geo Microformat